Time,TemperatureF,DewpointF,PressureIn,WindDirection,WindDirectionDegrees,WindSpeedMPH,WindSpeedGustMPH,Humidity,HourlyPrecipIn,Conditions,Clouds,dailyrainin,SolarRadiationWatts/m^2,SoftwareType,DateUTC
2013-06-14 00:04:00,55.6,52.0,30.05,NW,317,1.0,7.0,87,0.00,,,0.00,0,weatherlink.com 1.10,2013-06-14 05:04:00,
2013-06-14 00:19:00,55.5,52.0,30.04,North,5,2.0,3.0,87,0.00,,,0.00,0,weatherlink.com 1.10,2013-06-14 05:19:00,
2013-06-14 00:34:00,55.5,52.0,30.04,ENE,76,1.0,4.0,87,0.00,,,0.00,0,weatherlink.com 1.10,2013-06-14 05:34:00,
2013-06-14 00:49:00,55.3,52.0,30.04,NNE,31,3.0,5.0,88,0.00,,,0.00,0,weatherlink.com 1.10,2013-06-14 05:49:00,
2013-06-14 01:04:00,55.3,52.0,30.04,ENE,63,1.0,5.0,88,0.00,,,0.00,0,weatherlink.com 1.10,2013-06-14 06:04:00,
2013-06-14 01:19:00,55.3,52.0,30.04,NE,54,2.0,8.0,88,0.00,,,0.00,0,weatherlink.com 1.10,2013-06-14 06:19:00,
2013-06-14 01:34:00,55.8,52.0,30.04,NE,46,2.0,6.0,88,0.00,,,0.00,0,weatherlink.com 1.10,2013-06-14 06:34:00,
2013-06-14 01:49:00,55.4,52.0,30.04,NNW,336,1.0,5.0,88,0.00,,,0.00,0,weatherlink.com 1.10,2013-06-14 06:49:00,
2013-06-14 02:04:00,55.0,52.0,30.04,NE,55,0.0,5.0,89,0.00,,,0.00,0,weatherlink.com 1.10,2013-06-14 07:04:00,
2013-06-14 02:19:00,55.0,52.0,30.03,ENE,63,1.0,4.0,89,0.00,,,0.00,0,weatherlink.com 1.10,2013-06-14 07:19:00,
2013-06-14 02:34:00,55.0,52.0,30.04,NE,53,2.0,3.0,89,0.00,,,0.00,0,weatherlink.com 1.10,2013-06-14 07:34:00,
2013-06-14 02:49:00,55.0,52.0,30.04,NW,310,1.0,4.0,89,0.00,,,0.00,0,weatherlink.com 1.10,2013-06-14 07:49:00,
2013-06-14 03:04:00,55.2,52.0,30.04,North,5,1.0,3.0,89,0.00,,,0.00,0,weatherlink.com 1.10,2013-06-14 08:04:00,
2013-06-14 03:19:00,55.9,52.0,30.04,ENE,67,2.0,4.0,88,0.00,,,0.00,0,weatherlink.com 1.10,2013-06-14 08:19:00,
2013-06-14 03:34:00,56.2,53.0,30.04,ENE,69,1.0,4.0,88,0.00,,,0.00,0,weatherlink.com 1.10,2013-06-14 08:34:00,
2013-06-14 03:49:00,56.6,53.0,30.04,ENE,70,0.0,5.0,86,0.00,,,0.00,0,weatherlink.com 1.10,2013-06-14 08:49:00,
2013-06-14 04:06:00,56.5,52.0,30.04,NNW,330,1.0,5.0,86,0.00,,,0.00,0,weatherlink.com 1.10,2013-06-14 09:06:00,
2013-06-14 04:19:00,56.6,53.0,30.05,NNW,333,4.0,4.0,86,0.00,,,0.00,0,weatherlink.com 1.10,2013-06-14 09:19:00,
2013-06-14 04:34:00,56.9,52.0,30.06,ESE,118,1.0,6.0,84,0.00,,,0.00,0,weatherlink.com 1.10,2013-06-14 09:34:00,
2013-06-14 04:49:00,56.9,52.0,30.06,NNW,340,2.0,7.0,82,0.00,,,0.00,0,weatherlink.com 1.10,2013-06-14 09:49:00,
2013-06-14 05:04:00,56.8,51.0,30.06,NNE,30,1.0,9.0,80,0.00,,,0.00,0,weatherlink.com 1.10,2013-06-14 10:04:00,
2013-06-14 05:19:00,56.5,51.0,30.06,ENE,73,2.0,9.0,81,0.00,,,0.00,5,weatherlink.com 1.10,2013-06-14 10:19:00,
2013-06-14 05:34:00,56.0,51.0,30.05,ENE,57,2.0,8.0,82,0.00,,,0.00,14,weatherlink.com 1.10,2013-06-14 10:34:00,
2013-06-14 05:49:00,55.7,51.0,30.05,East,80,6.0,7.0,83,0.00,,,0.00,35,weatherlink.com 1.10,2013-06-14 10:49:00,
2013-06-14 06:04:00,55.8,51.0,30.06,NNE,12,2.0,5.0,83,0.00,,,0.00,44,weatherlink.com 1.10,2013-06-14 11:04:00,
2013-06-14 06:19:00,55.8,51.0,30.07,NW,311,1.0,6.0,83,0.00,,,0.00,39,weatherlink.com 1.10,2013-06-14 11:19:00,
2013-06-14 06:34:00,55.8,51.0,30.07,NE,49,1.0,5.0,83,0.00,,,0.00,42,weatherlink.com 1.10,2013-06-14 11:34:00,
2013-06-14 06:49:00,55.9,51.0,30.08,ENE,67,2.0,5.0,83,0.00,,,0.00,53,weatherlink.com 1.10,2013-06-14 11:49:00,
2013-06-14 07:04:00,55.9,51.0,30.09,ENE,57,2.0,7.0,82,0.00,,,0.00,77,weatherlink.com 1.10,2013-06-14 12:04:00,
2013-06-14 07:20:00,56.3,51.0,30.11,ENE,57,1.0,5.0,82,0.00,,,0.00,120,weatherlink.com 1.10,2013-06-14 12:20:00,
2013-06-14 07:34:00,56.6,51.0,30.11,ENE,57,1.0,5.0,82,0.00,,,0.00,84,weatherlink.com 1.10,2013-06-14 12:34:00,
2013-06-14 07:49:00,56.3,50.0,30.11,ENE,71,4.0,8.0,80,0.00,,,0.00,183,weatherlink.com 1.10,2013-06-14 12:49:00,
2013-06-14 08:04:00,56.6,51.0,30.12,ENE,58,2.0,5.0,81,0.00,,,0.00,77,weatherlink.com 1.10,2013-06-14 13:04:00,
2013-06-14 08:19:00,56.7,51.0,30.12,NW,325,2.0,5.0,81,0.00,,,0.00,158,weatherlink.com 1.10,2013-06-14 13:19:00,
2013-06-14 08:35:00,56.6,51.0,30.12,NE,55,4.0,8.0,80,0.00,,,0.00,190,weatherlink.com 1.10,2013-06-14 13:35:00,
2013-06-14 08:50:00,56.8,51.0,30.11,NE,56,2.0,8.0,81,0.00,,,0.00,543,weatherlink.com 1.10,2013-06-14 13:50:00,
2013-06-14 09:05:00,56.5,51.0,30.12,East,87,3.0,7.0,81,0.00,,,0.00,587,weatherlink.com 1.10,2013-06-14 14:05:00,
2013-06-14 09:20:00,57.4,51.0,30.12,East,82,2.0,5.0,80,0.00,,,0.00,628,weatherlink.com 1.10,2013-06-14 14:20:00,
2013-06-14 09:35:00,57.1,51.0,30.14,East,94,2.0,7.0,80,0.00,,,0.00,664,weatherlink.com 1.10,2013-06-14 14:35:00,
2013-06-14 09:50:00,57.7,52.0,30.13,ENE,59,3.0,5.0,81,0.00,,,0.00,689,weatherlink.com 1.10,2013-06-14 14:50:00,
2013-06-14 10:05:00,58.1,52.0,30.13,NNW,329,2.0,7.0,80,0.00,,,0.00,729,weatherlink.com 1.10,2013-06-14 15:05:00,
2013-06-14 10:20:00,57.7,51.0,30.12,WNW,285,2.0,6.0,79,0.00,,,0.00,740,weatherlink.com 1.10,2013-06-14 15:20:00,
2013-06-14 10:35:00,58.4,52.0,30.12,North,10,2.0,5.0,79,0.00,,,0.00,773,weatherlink.com 1.10,2013-06-14 15:35:00,
2013-06-14 10:50:00,58.3,51.0,30.12,NW,306,2.0,5.0,78,0.00,,,0.00,824,weatherlink.com 1.10,2013-06-14 15:50:00,
2013-06-14 11:05:00,59.1,52.0,30.12,NE,38,2.0,4.0,78,0.00,,,0.00,803,weatherlink.com 1.10,2013-06-14 16:05:00,
2013-06-14 11:20:00,58.7,52.0,30.11,NE,44,2.0,7.0,77,0.00,,,0.00,861,weatherlink.com 1.10,2013-06-14 16:20:00,
2013-06-14 11:35:00,58.5,52.0,30.11,ENE,69,4.0,7.0,79,0.00,,,0.00,879,weatherlink.com 1.10,2013-06-14 16:35:00,
2013-06-14 11:50:00,58.4,53.0,30.11,NNE,13,3.0,7.0,82,0.00,,,0.00,904,weatherlink.com 1.10,2013-06-14 16:50:00,
2013-06-14 12:05:00,58.5,53.0,30.11,ENE,78,3.0,4.0,81,0.00,,,0.00,891,weatherlink.com 1.10,2013-06-14 17:05:00,
2013-06-14 12:20:00,58.4,53.0,30.10,ENE,60,3.0,6.0,81,0.00,,,0.00,923,weatherlink.com 1.10,2013-06-14 17:20:00,
2013-06-14 12:35:00,58.7,53.0,30.10,NE,51,0.0,5.0,80,0.00,,,0.00,916,weatherlink.com 1.10,2013-06-14 17:35:00,
2013-06-14 12:50:00,58.5,52.0,30.11,ENE,77,2.0,5.0,78,0.00,,,0.00,923,weatherlink.com 1.10,2013-06-14 17:50:00,
2013-06-14 13:05:00,59.0,53.0,30.11,NNW,329,2.0,5.0,80,0.00,,,0.00,939,weatherlink.com 1.10,2013-06-14 18:05:00,
2013-06-14 13:20:00,60.0,53.0,30.11,ENE,75,2.0,5.0,79,0.00,,,0.00,923,weatherlink.com 1.10,2013-06-14 18:20:00,
2013-06-14 13:35:00,59.3,52.0,30.11,ENE,74,2.0,5.0,77,0.00,,,0.00,912,weatherlink.com 1.10,2013-06-14 18:35:00,
2013-06-14 13:50:00,59.1,52.0,30.11,NNE,28,2.0,6.0,76,0.00,,,0.00,912,weatherlink.com 1.10,2013-06-14 18:50:00,
2013-06-14 14:05:00,59.2,53.0,30.11,NE,36,1.0,5.0,80,0.00,,,0.00,898,weatherlink.com 1.10,2013-06-14 19:05:00,
2013-06-14 14:20:00,59.5,53.0,30.10,East,84,3.0,5.0,78,0.00,,,0.00,870,weatherlink.com 1.10,2013-06-14 19:20:00,
2013-06-14 14:35:00,60.6,54.0,30.09,NE,51,2.0,5.0,78,0.00,,,0.00,821,weatherlink.com 1.10,2013-06-14 19:35:00,
2013-06-14 14:50:00,59.4,53.0,30.09,NE,55,2.0,7.0,79,0.00,,,0.00,802,weatherlink.com 1.10,2013-06-14 19:50:00,
2013-06-14 15:05:00,60.7,53.0,30.09,ENE,63,2.0,4.0,75,0.00,,,0.00,810,weatherlink.com 1.10,2013-06-14 20:05:00,
2013-06-14 15:20:00,60.2,52.0,30.08,NNE,33,4.0,4.0,75,0.00,,,0.00,749,weatherlink.com 1.10,2013-06-14 20:20:00,
2013-06-14 15:35:00,61.0,53.0,30.08,NE,45,2.0,5.0,76,0.00,,,0.00,733,weatherlink.com 1.10,2013-06-14 20:35:00,
2013-06-14 15:50:00,61.0,53.0,30.08,NE,55,3.0,5.0,75,0.00,,,0.00,698,weatherlink.com 1.10,2013-06-14 20:50:00,
2013-06-14 16:05:00,61.2,53.0,30.07,NNE,31,2.0,3.0,75,0.00,,,0.00,663,weatherlink.com 1.10,2013-06-14 21:05:00,
2013-06-14 16:20:00,61.5,54.0,30.07,NE,43,2.0,3.0,75,0.00,,,0.00,628,weatherlink.com 1.10,2013-06-14 21:20:00,
2013-06-14 16:35:00,60.2,52.0,30.06,East,80,5.0,5.0,75,0.00,,,0.00,575,weatherlink.com 1.10,2013-06-14 21:35:00,
2013-06-14 16:50:00,60.3,52.0,30.06,NE,53,3.0,4.0,75,0.00,,,0.00,540,weatherlink.com 1.10,2013-06-14 21:50:00,
2013-06-14 17:06:00,60.9,53.0,30.05,ENE,60,3.0,5.0,76,0.00,,,0.00,503,weatherlink.com 1.10,2013-06-14 22:06:00,
2013-06-14 17:21:00,59.1,53.0,30.04,NE,50,4.0,6.0,79,0.00,,,0.00,452,weatherlink.com 1.10,2013-06-14 22:21:00,
2013-06-14 17:36:00,59.3,52.0,30.04,ENE,73,2.0,3.0,78,0.00,,,0.00,403,weatherlink.com 1.10,2013-06-14 22:36:00,
2013-06-14 17:51:00,58.7,52.0,30.04,NE,44,2.0,3.0,77,0.00,,,0.00,111,weatherlink.com 1.10,2013-06-14 22:51:00,
2013-06-14 18:06:00,59.1,52.0,30.03,NE,49,2.0,4.0,78,0.00,,,0.00,91,weatherlink.com 1.10,2013-06-14 23:06:00,
2013-06-14 18:21:00,58.7,52.0,30.02,ENE,69,1.0,4.0,78,0.00,,,0.00,74,weatherlink.com 1.10,2013-06-14 23:21:00,
2013-06-14 18:36:00,58.8,52.0,30.01,ENE,57,0.0,3.0,79,0.00,,,0.00,70,weatherlink.com 1.10,2013-06-14 23:36:00,
2013-06-14 18:51:00,58.3,52.0,30.01,NE,42,0.0,3.0,80,0.00,,,0.00,70,weatherlink.com 1.10,2013-06-14 23:51:00,
2013-06-14 19:06:00,58.0,52.0,30.02,WSW,237,0.0,2.0,81,0.00,,,0.00,121,weatherlink.com 1.10,2013-06-15 00:06:00,
2013-06-14 19:21:00,58.0,52.0,30.02,NE,51,0.0,3.0,81,0.00,,,0.00,51,weatherlink.com 1.10,2013-06-15 00:21:00,
2013-06-14 19:36:00,57.5,52.0,30.02,NE,51,1.0,2.0,82,0.00,,,0.00,25,weatherlink.com 1.10,2013-06-15 00:36:00,
2013-06-14 19:51:00,57.2,52.0,30.02,NE,50,0.0,2.0,83,0.00,,,0.00,11,weatherlink.com 1.10,2013-06-15 00:51:00,
2013-06-14 20:06:00,57.0,52.0,30.02,NE,50,0.0,2.0,83,0.00,,,0.00,7,weatherlink.com 1.10,2013-06-15 01:06:00,
2013-06-14 20:21:00,57.1,52.0,30.01,NE,50,0.0,2.0,82,0.00,,,0.00,0,weatherlink.com 1.10,2013-06-15 01:21:00,
2013-06-14 20:36:00,56.9,51.0,30.03,NE,50,0.0,0.0,81,0.00,,,0.00,0,weatherlink.com 1.10,2013-06-15 01:36:00,
2013-06-14 20:51:00,56.7,51.0,30.02,NE,50,0.0,0.0,81,0.00,,,0.00,0,weatherlink.com 1.10,2013-06-15 01:51:00,
2013-06-14 21:06:00,56.5,51.0,30.04,NE,50,0.0,0.0,83,0.00,,,0.00,0,weatherlink.com 1.10,2013-06-15 02:06:00,
2013-06-14 21:21:00,56.6,52.0,30.04,NE,50,0.0,1.0,83,0.00,,,0.00,0,weatherlink.com 1.10,2013-06-15 02:21:00,
2013-06-14 21:36:00,56.0,52.0,30.04,NE,50,0.0,0.0,85,0.00,,,0.00,0,weatherlink.com 1.10,2013-06-15 02:36:00,
2013-06-14 21:51:00,55.6,52.0,30.03,NE,50,0.0,0.0,86,0.00,,,0.00,0,weatherlink.com 1.10,2013-06-15 02:51:00,
2013-06-14 22:06:00,55.3,52.0,30.04,NE,50,0.0,2.0,87,0.00,,,0.00,0,weatherlink.com 1.10,2013-06-15 03:06:00,
2013-06-14 22:21:00,55.1,52.0,30.03,NE,50,0.0,0.0,88,0.00,,,0.00,0,weatherlink.com 1.10,2013-06-15 03:21:00,
2013-06-14 22:36:00,54.5,51.0,30.02,NE,50,0.0,1.0,89,0.00,,,0.00,0,weatherlink.com 1.10,2013-06-15 03:36:00,
2013-06-14 22:51:00,54.6,52.0,30.01,NE,50,0.0,0.0,89,0.00,,,0.00,0,weatherlink.com 1.10,2013-06-15 03:51:00,
2013-06-14 23:06:00,54.5,51.0,30.02,NE,50,0.0,0.0,89,0.00,,,0.00,0,weatherlink.com 1.10,2013-06-15 04:06:00,
2013-06-14 23:21:00,54.2,51.0,30.01,NE,50,0.0,0.0,90,0.00,,,0.00,0,weatherlink.com 1.10,2013-06-15 04:21:00,
2013-06-14 23:36:00,54.3,51.0,30.02,NE,50,0.0,0.0,89,0.00,,,0.00,0,weatherlink.com 1.10,2013-06-15 04:36:00,
2013-06-14 23:51:00,53.7,51.0,30.01,NE,50,0.0,0.0,89,0.00,,,0.00,0,weatherlink.com 1.10,2013-06-15 04:51:00,